Regional Weather Roundup
Issued by NWS Wakefield, VA

Home | Current Version | Previous Version | Text Only | Print | Product List | Glossary Off
Versions: 1 2 3 4 5 6 7 8 9 10 11 12 13 14 15 16 17 18 19 20 21 22 23 24 25 26 27 28

000
ASUS41 KAKQ 231310
RWRAKQ

REGIONAL WEATHER ROUNDUP
NATIONAL WEATHER SERVICE WAKEFIELD VA
900 AM EDT THU OCT 23 2014

Note: "fair" indicates few or no clouds below 12,000 feet with no
significant weather and/or obstructions to visibility. * = Denotes
station may not report precipitation (e.g., rain,snow,etc.),
thunder or fog.

VAZ042-051-052>054-056-231400-
NORTHERN VIRGINIA

CITY           SKY/WX    TMP DP  RH WIND       PRES   REMARKS
WASH NATIONAL  CLOUDY    56  42  59 NW17G25   29.91R
DULLES         PTSUNNY   52  42  69 NW18G24   29.92S
FORT BELVOIR   CLOUDY    54  42  64 NW21G26   29.92R
QUANTICO       PTSUNNY   54  41  61 NW17G26   29.93S
FREDERICKSBRG* CLOUDY    55  44  64 NW14G23   29.93R
STAFFORD*      CLOUDY    53  41  64 NW12G22   29.97S
WARRENTON      CLOUDY    55  47  76 NW14      29.95R
CULPEPER*      CLOUDY    55  43  62 NW9       29.95S
MANASSAS*      NOT AVBL
LEESBURG*      MOSUNNY   54  45  71 NW16G31   29.94S
WINCHESTER     PTSUNNY   54  37  54 NW20G28   29.97S
FRONT ROYAL*   CLOUDY    52  41  66 NW12G17   29.99S
LURAY*         MOSUNNY   55  43  62 NW10G20   30.01R
$$

VAZ048-049-060>072-079>083-231400-
CENTRAL AND SOUTH CENTRAL VIRGINIA...AND NORTH CENTRAL NORTH CAROLINA

CITY           SKY/WX    TMP DP  RH WIND       PRES   REMARKS
RICHMOND       PTSUNNY   54  41  61 NW14      29.94F
CHESTERFIELD*  CLOUDY   N/A N/A N/A NW13      29.96S
PETERSBURG*    SUNNY     51  40  64 W8        29.97R
HANOVER        PTSUNNY   51  43  74 W7        29.96S
TAPPAHANNOCK*  MOSUNNY   55  40  57 W10G17    29.92S
CHARLOTTSVILLE MOSUNNY   53  40  61 NW6       29.99R
ORANGE*        CLOUDY    54  43  66 SW7       29.98R
LOUISA*        CLOUDY    54  45  71 NW12      29.95R
FARMVILLE*     SUNNY     54  43  66 CALM      29.97S
CREWE*         SUNNY     51  40  66 W7        29.98R
FORT PICKETT*  SUNNY     49  42  75 W8        29.98R
LUNENBURG*     SUNNY     49  42  76 NW3       29.99R
SOUTH HILL*    SUNNY     54  43  66 NW6       30.05R
LAWRENCEVILLE* MOSUNNY   47  43  84 CALM      29.98S
ROANOKE RAPIDS SUNNY     52  43  71 NW6       29.98S
RALEIGH        SUNNY     51  40  65 NW5       30.02S
$$

VAZ088>098-231400-
SOUTHEAST VIRGINIA

CITY           SKY/WX    TMP DP  RH WIND       PRES   REMARKS
NORFOLK        CLOUDY    54  42  64 NW13G24   29.90R
VIRGINIA BEACH PTSUNNY   56  44  64 NW14G29   29.88S
NORFOLK NAVAL  PTSUNNY   56  43  61 NW21G29   29.91S
WEST POINT*    CLOUDY    55  44  65 W10G18    29.93S
NEWPORT NEWS   PTSUNNY   56  43  61 NW13G24   29.91S
LANGLEY AFB    PTSUNNY   53  43  68 NW18G25   29.90S
FORT EUSTIS    CLOUDY    54  41  62 NW18G25   29.90S
WILLIAMSBURG*  SUNNY     55  45  67 NW17G26   29.92F
HR EXEC AP*    CLOUDY    52  43  71 W7        29.95R
FRANKLIN*      CLOUDY    52  43  71 W10G16    29.95S
WAKEFIELD      MOSUNNY   52  42  69 W6        29.95R
$$

VAZ020-022-025-037-045-231400-
WEST CENTRAL AND SOUTHWEST VIRGINIA

CITY           SKY/WX    TMP DP  RH WIND       PRES   REMARKS
STAUNTON*      SUNNY     51  40  64 NW7       30.03S
HOT SPRINGS VA CLOUDY    40  37  91 NW24G32   30.02S
LYNCHBURG      SUNNY     52  38  58 VRB6G16   30.02S
DANVILLE       SUNNY     50  40  68 NW9       30.04R
SOUTH BOSTON*  NOT AVBL
MARTINSVILLE   SUNNY     52  40  62 N10       30.08R
ROANOKE        MOSUNNY   51  38  60 NW18G25   30.10R
BLACKSBURG     PTSUNNY   46  41  81 CALM      30.13R
DUBLIN*        CLOUDY    47  40  77 NW10G16   30.14R
MARION*        PTSUNNY   44  37  76 NW12      30.18R
HILLSVILLE*    CLOUDY    42  37  80 NW22G28   30.10R
RICHLANDS*     CLOUDY    44  40  86 NW5       30.19R
WISE*          CLOUDY    43  41  93 N3        30.21S
ABINGDON*      CLOUDY    46  40  78 CALM      30.20R
$$

MDZ021>025-VAZ099-100-231400-
SOUTHERN MARYLAND AND THE DELMARVA PENINSULA

CITY           SKY/WX    TMP DP  RH WIND       PRES   REMARKS
PATUXENT RIVER CLOUDY    54  43  66 NW18G24   29.87R
BAY BRIDGE APT   N/A     54  43  66 NW17G24   29.85S
LEONARDTOWN    CLOUDY    52  41  66 W12G20    29.89S
DOVER          LGT RAIN  53  46  78 W17G25    29.77R
GEORGETOWN     CLOUDY    54  45  71 VRB7      29.80R
EASTON         CLOUDY    55  46  71 NW16G23   29.87R
CAMBRIDGE      CLOUDY    55  45  67 NW13G21   29.83S VSB<1/4
SALISBURY      CLOUDY    56  45  66 NW12G20   29.81R
OCEAN CITY     CLOUDY    53  46  77 NW12G22   29.78S
WALLOPS ISLAND CLOUDY    55  47  74 NW20G29   29.82R
ACCOMACK*      CLOUDY    54  43  66 NW14G26   29.85R
$$

NCZ012>017-030>032-231400-
EASTERN NORTH CAROLINA

CITY           SKY/WX    TMP DP  RH WIND       PRES   REMARKS
ELIZABETH CITY CLOUDY    54  43  66 NW15G22   29.92R
AHOSKIE*       SUNNY     51  42  70 NW5       29.98S
EDENTON*       CLOUDY    51  44  77 NW9       29.95S
CURRITUCK*     CLOUDY    52  42  68 W15       29.92S
KILL DEVIL HLS PTSUNNY   54  45  71 NW15G24   29.89R
MANTEO         PTSUNNY   54  45  71 NW16G30   29.91R
CAPE HATTERAS  SUNNY     55  46  71 NW14G28   29.93R
TARBORO*       SUNNY     51  44  76 W7        30.00R
GOLDSBORO      SUNNY     50  47  88 W3        29.99S
WASHINGTON     SUNNY     51  42  73 NW8       29.98S
GREENVILLE     SUNNY     52  43  71 NW5       30.01R
NEW BERN       SUNNY     54  43  66 NW10      30.00S
WILMINGTON     SUNNY     51  43  74 N9        30.03R
$$

VAZ048-231400-
ELSEWHERE

CITY           SKY/WX    TMP DP  RH WIND       PRES   REMARKS
HARRISBURG PA  CLOUDY    54  42  64 N16G25    29.87F
BALTIMORE      PTSUNNY   54  43  66 W12G17    29.86R
ANNAPOLIS      PTSUNNY   55  44  66 NW10      29.85S
ANDREWS AFB    CLOUDY    53  43  69 NW18G24   29.88S
WILMINGTON DE  LGT RAIN  51  46  83 NW17      29.80S
PHILADELPHIA   LGT RAIN  51  46  83 NW18      29.78R
WILDWOOD NJ*   CLOUDY    54  45  71 NW12G20   29.76R
ATLANTIC CITY  CLOUDY    50  48  93 NW18G26   29.72S
HENDERSON NC   SUNNY     51  39  63 NW7       30.01R
GREENSBORO     SUNNY     49  40  71 NW6       30.04R
ROCKY MOUNT    SUNNY     51  42  71 NW7       30.00R
FAYETTEVILLE   SUNNY     54  40  59 N10       30.03R
CHARLOTTE      SUNNY     47  39  74 NW6       30.08F
$$

VAZ100-231400-
MARINE

STATION/POSITION TIME  TEMP    WIND        PRES    WAVE   SWELL
                       AIR SEA DIR/SP/G            HT/PER HT/PER
                 (UTC) (F)     (DEG/KT/KT) (MB)    (FT/S) (FT/S)
44066 TX TWR #4  1300   58 67  350/ 25/ 31 1000.2R  11/ 8   3/12
CAPE MAY NJ      1300   54 65  330/ 21/ 32 1007.2R
LEWES DE         1300   54 60  320/ 26/ 33 1007.7F
15NM E FENWICK I 1300   57 65  310/ 23/ 29 1006.3R   9/ 8
OCEAN-CITY-INLET 1300   54 63  330/ 17/ 23 1007.9F
WACHAPREAGUE VA  1300   55 60  280/  4/  8 1010.5R
THOMAS POINT MD  1300   54 61  310/ 19/ 23 1011.6S
GOOSES REEF MD   1300   55     320/ 19/ 23 1011.3R
COVE POINT MD    1300   54     320/ 18/ 24 1010.8R
SOLOMONS ISLAND  1300      63                N/A
BISHOPS HEAD MD  1300   55 54  320/ 18/ 25 1010.3R
PINEY POINT MD   1300          330/ 28/ 31   N/A
POTOMAC MD       1300   56     330/ 21/ 27 1011.0R
CAMBRIDGE MD     1300   55 60  300/ 14/ 22 1010.1R
LEWISETTA VA     1300   55 59  320/ 16/ 21 1011.6R
RAPPAHANNOCK LGT 1300          300/ 26/ 29 1011.4S
STINGRAY PT      1300   55     310/ 19/ 25 1012.2R
YORK RVR RNG VA  1300   54     320/ 19/ 23 1011.7F
YORKTOWN VA      1300   54 65  310/ 18/ 22 1012.0F
JAMESTOWN VA     1300   53     330/ 16/ 19   N/A
DOMINION TERM VA 1300   55     330/ 19/ 26 1012.7S
KIPTOPEKE VA     1300      65  330/ 25/ 28   N/A
CHES BAY BRIDGE  1300   55 65  290/ 22/ 28 1011.5F
CAPE HENRY VA    1300   54     300/ 24/ 29 1010.5F
CHESAPEAKE LGHT  1200   56     320/ 29/ 34 1011.4R
WILLOUBY STN VA  1300   54     320/ 19/ 26 1011.1F
S CRANEY ISL VA  1300          290/ 14/ 24 1012.2F
CAPE HENRY BUOY  1300      68                N/A     7/ 6   2/11
1ST LANDING BUOY 1300   57     310/ 23/ 31 1011.3F
CAPE CHARLES BUO 1300      67                N/A     5/ 5   3/11
64NM E OF VA BCH 1200   59 71  310/ 27/ 33 1008.3R  12/10
DUCK PIER NC     1300   53 67  310/ 21/ 27 1011.2F
44100 DUCK FRF   1200      69                N/A     7/ 6   2/11
44056 DUCK FRF   1300                        N/A     5/11   2/11
OREGON INLET NC  1300   55 63  300/ 20/ 26 1012.0R
HATTERAS NC      1300   56 63  310/ 24/ 28 1013.7S
DIAMOND SHLS NC  1300   59     310/ 27/ 33 1012.3R   7/ 6   2/ 9
CAPE LOOKOUT NC  1200   55     310/ 13/ 17 1014.6R
$$



USA.gov is the U.S. government's official web portal to all federal, state and local government web resources and services.